Tracking 27126 objects as of 30-Mar-2023
HD Live streaming from Space Station
objects crossing your sky now

SL-12 R/B(AUX MOTOR)

Track SL-12 R/B(AUX MOTOR) now!
10-day predictions


NORAD ID: 18374
Int'l Code: 1987-079G
Perigee: 511.9 km
Apogee: 18,502.0 km
Inclination: 65.3 °
Period: 331.9 minutes
Semi major axis: 15877 km
RCS: 0.6049 m2 (medium)
Launch date: September 16, 1987
Source: Commonwealth of Independent States (former USSR) (CIS)
Launch site: TYURATAM MISSILE AND SPACE COMPLEX (TTMTR)

Note: This is a ROCKET BODY
Your satellite tracking list
Your tracking list is empty




NASA's NSSDC Master Catalog

Two Line Element Set (TLE):
1 18374U 87079G   23089.13634482  .00000713  00000-0  18795-2 0  9990
2 18374  65.2547   0.7896 5665124  43.8820 349.2132  4.33923054554447
Source of the keplerian elements: AFSPC